NWK1642 YPPH-YPPD

Flight info

Callsign NWK1642
Flight time 1h 49m
Altitude 35000
Route PH Y15 ESDEG Y44 BUTON DCT PD
Aircraft A320/M-SDE3FGHIRWY/LB1

Departure

Time 2026-04-25 04:23
Airport Perth International Airport (YPPH)

Arrival

Time 2026-04-25 06:13
Airport Port Hedland International Airport (YPPD)
Time Latitude Longitude Altitude Speed Heading
2026-04-25 03:45 -31.93467 115.96151 61 ft 0 kts 300°
2026-04-25 04:13 -31.93472 115.96162 58 ft 4 kts 296°
2026-04-25 04:13 -31.93483 115.96191 59 ft 4 kts 291°
2026-04-25 04:14 -31.93495 115.96216 63 ft 3 kts 330°
2026-04-25 04:14 -31.93515 115.96226 60 ft 4 kts
2026-04-25 04:14 -31.93539 115.96215 58 ft 3 kts 31°
2026-04-25 04:14 -31.93542 115.96212 61 ft 0 kts 30°
2026-04-25 04:16 -31.93533 115.96219 66 ft 4 kts 31°
2026-04-25 04:16 -31.93497 115.96245 63 ft 7 kts 31°
2026-04-25 04:17 -31.93446 115.96277 62 ft 9 kts 24°
2026-04-25 04:17 -31.93379 115.96307 63 ft 11 kts 18°
2026-04-25 04:17 -31.93297 115.96327 61 ft 13 kts 11°
2026-04-25 04:17 -31.93236 115.96328 63 ft 14 kts 356°
2026-04-25 04:18 -31.93115 115.96380 67 ft 15 kts 47°
2026-04-25 04:18 -31.93044 115.96473 66 ft 16 kts 47°
2026-04-25 04:18 -31.92965 115.96571 62 ft 14 kts 46°
2026-04-25 04:18 -31.92887 115.96600 64 ft 10 kts 17°
2026-04-25 04:19 -31.92863 115.96614 64 ft 0 kts 34°
2026-04-25 04:19 -31.92855 115.96624 66 ft 3 kts 49°
2026-04-25 04:20 -31.92846 115.96643 63 ft 4 kts 69°
2026-04-25 04:20 -31.92850 115.96701 68 ft 6 kts 104°
2026-04-25 04:20 -31.92851 115.96706 60 ft 0 kts 104°
2026-04-25 04:21 -31.92851 115.96709 61 ft 2 kts 104°
2026-04-25 04:21 -31.92862 115.96759 69 ft 8 kts 104°
2026-04-25 04:21 -31.92882 115.96824 66 ft 10 kts 130°
2026-04-25 04:21 -31.92936 115.96824 63 ft 0 kts 194°
2026-04-25 04:22 -31.92973 115.96813 64 ft 25 kts 194°
2026-04-25 04:23 -31.93377 115.96695 66 ft 92 kts 194°
2026-04-25 04:23 -31.94172 115.96464 68 ft 141 kts 194°
2026-04-25 04:23 -31.95222 115.96157 365 ft 157 kts 195°
2026-04-25 04:23 -31.96270 115.95852 992 ft 157 kts 193°
2026-04-25 04:24 -31.97343 115.95538 1541 ft 160 kts 194°
2026-04-25 04:24 -31.98437 115.95208 1986 ft 170 kts 193°
2026-04-25 04:24 -31.99658 115.94851 2248 ft 192 kts 194°
2026-04-25 04:24 -32.01047 115.94443 2485 ft 219 kts 197°
2026-04-25 04:25 -32.02370 115.93435 2858 ft 242 kts 233°
2026-04-25 04:25 -32.02915 115.91517 3442 ft 257 kts 267°
2026-04-25 04:25 -32.02766 115.89394 4292 ft 262 kts 278°
2026-04-25 04:25 -32.02384 115.87274 5199 ft 266 kts 282°
2026-04-25 04:26 -32.01944 115.85144 6039 ft 270 kts 282°
2026-04-25 04:26 -32.01530 115.82974 6886 ft 273 kts 281°
2026-04-25 04:26 -32.01159 115.80770 7694 ft 275 kts 279°
2026-04-25 04:26 -32.00828 115.78540 8516 ft 277 kts 278°
2026-04-25 04:27 -32.00521 115.76288 9353 ft 279 kts 278°
2026-04-25 04:27 -32.00224 115.74022 10162 ft 282 kts 278°
2026-04-25 04:27 -31.99815 115.71761 10617 ft 296 kts 291°
2026-04-25 04:27 -31.98632 115.69680 10784 ft 321 kts 317°
2026-04-25 04:28 -31.96630 115.68397 11126 ft 338 kts 345°
2026-04-25 04:28 -31.94265 115.68324 11709 ft 346 kts
2026-04-25 04:28 -31.91874 115.68760 12386 ft 349 kts
2026-04-25 04:28 -31.89467 115.69218 13069 ft 352 kts
2026-04-25 04:29 -31.87042 115.69683 13742 ft 355 kts
2026-04-25 04:29 -31.84595 115.70148 14372 ft 357 kts
2026-04-25 04:29 -31.82130 115.70614 14944 ft 360 kts
2026-04-25 04:29 -31.79642 115.71078 15505 ft 364 kts
2026-04-25 04:30 -31.77128 115.71543 16057 ft 367 kts
2026-04-25 04:30 -31.74593 115.72011 16616 ft 370 kts
2026-04-25 04:30 -31.72036 115.72483 17167 ft 374 kts
2026-04-25 04:30 -31.69458 115.72959 17723 ft 377 kts
2026-04-25 04:31 -31.66856 115.73442 18283 ft 381 kts
2026-04-25 04:31 -31.64220 115.73932 18801 ft 384 kts
2026-04-25 04:31 -31.61563 115.74425 19303 ft 388 kts
2026-04-25 04:31 -31.58890 115.74920 19825 ft 391 kts
2026-04-25 04:32 -31.56195 115.75417 20355 ft 394 kts
2026-04-25 04:32 -31.53474 115.75918 20883 ft 397 kts
2026-04-25 04:32 -31.50736 115.76424 21389 ft 400 kts
2026-04-25 04:32 -31.47978 115.76934 21884 ft 403 kts 11°
2026-04-25 04:33 -31.45237 115.77442 22440 ft 404 kts 11°
2026-04-25 04:33 -31.42453 115.77957 22951 ft 407 kts 10°
2026-04-25 04:33 -31.39649 115.78475 23432 ft 410 kts 10°
2026-04-25 04:33 -31.36819 115.78996 23887 ft 413 kts 11°
2026-04-25 04:34 -31.33975 115.79522 24274 ft 415 kts 10°
2026-04-25 04:34 -31.31104 115.80056 24672 ft 418 kts 10°
2026-04-25 04:34 -31.28228 115.80590 25059 ft 420 kts 10°
2026-04-25 04:34 -31.25336 115.81124 25437 ft 422 kts 10°
2026-04-25 04:35 -31.22424 115.81656 25816 ft 424 kts 10°
2026-04-25 04:35 -31.19498 115.82185 26207 ft 426 kts 10°
2026-04-25 04:35 -31.16565 115.82718 26580 ft 428 kts 11°
2026-04-25 04:35 -31.13620 115.83256 26943 ft 430 kts 11°
2026-04-25 04:36 -31.10660 115.83798 27296 ft 432 kts 11°
2026-04-25 04:36 -31.07681 115.84343 27647 ft 434 kts 11°
2026-04-25 04:36 -31.04723 115.84889 27998 ft 436 kts 11°
2026-04-25 04:36 -31.01715 115.85446 28347 ft 438 kts 11°
2026-04-25 04:37 -30.98697 115.86003 28698 ft 440 kts 11°
2026-04-25 04:37 -30.95659 115.86556 29043 ft 442 kts 11°
2026-04-25 04:37 -30.92615 115.87108 29446 ft 443 kts 11°
2026-04-25 04:37 -30.89571 115.87661 29828 ft 444 kts 11°
2026-04-25 04:38 -30.86511 115.88215 30174 ft 445 kts 11°
2026-04-25 04:38 -30.83443 115.88772 30532 ft 445 kts 11°
2026-04-25 04:38 -30.80386 115.89327 30925 ft 444 kts 11°
2026-04-25 04:38 -30.77331 115.89881 31317 ft 443 kts 11°
2026-04-25 04:39 -30.74289 115.90432 31713 ft 442 kts 10°
2026-04-25 04:39 -30.71251 115.90988 32126 ft 441 kts
2026-04-25 04:39 -30.68223 115.91544 32545 ft 439 kts 10°
2026-04-25 04:39 -30.65214 115.92096 32974 ft 437 kts
2026-04-25 04:40 -30.62250 115.92636 33376 ft 437 kts
2026-04-25 04:40 -30.59243 115.93180 33778 ft 436 kts
2026-04-25 04:40 -30.56246 115.93719 34157 ft 436 kts
2026-04-25 04:40 -30.53250 115.94256 34491 ft 435 kts
2026-04-25 04:41 -30.50255 115.94794 34793 ft 435 kts
2026-04-25 04:41 -30.47264 115.95326 35089 ft 435 kts
2026-04-25 04:41 -30.44266 115.95864 35231 ft 438 kts
2026-04-25 04:42 -30.38182 115.96967 35262 ft 445 kts
2026-04-25 04:42 -30.32060 115.98074 35254 ft 446 kts
2026-04-25 04:43 -30.25926 115.99179 35261 ft 446 kts
2026-04-25 04:43 -30.19794 116.00280 35253 ft 446 kts
2026-04-25 04:44 -30.13661 116.01380 35241 ft 446 kts
2026-04-25 04:44 -30.07572 116.02471 35248 ft 446 kts
2026-04-25 04:45 -30.01439 116.03578 35254 ft 446 kts
2026-04-25 04:45 -29.95309 116.04670 35256 ft 446 kts
2026-04-25 04:46 -29.89170 116.05763 35247 ft 446 kts
2026-04-25 04:46 -29.83037 116.06861 35255 ft 446 kts
2026-04-25 04:47 -29.76906 116.07955 35252 ft 446 kts
2026-04-25 04:47 -29.70778 116.09043 35251 ft 445 kts
2026-04-25 04:48 -29.64655 116.10131 35247 ft 445 kts
2026-04-25 04:48 -29.58533 116.11219 35241 ft 445 kts
2026-04-25 04:49 -29.52407 116.12308 35242 ft 445 kts
2026-04-25 04:49 -29.46292 116.13388 35237 ft 444 kts
2026-04-25 04:50 -29.40185 116.14466 35237 ft 444 kts
2026-04-25 04:50 -29.34108 116.15549 35227 ft 444 kts
2026-04-25 04:51 -29.27999 116.16632 35224 ft 443 kts
2026-04-25 04:51 -29.21899 116.17706 35225 ft 443 kts
2026-04-25 04:52 -29.15801 116.18777 35228 ft 443 kts
2026-04-25 04:52 -29.09706 116.19842 35226 ft 443 kts
2026-04-25 04:53 -29.03652 116.20904 35221 ft 442 kts
2026-04-25 04:53 -28.97571 116.21973 35223 ft 442 kts
2026-04-25 04:54 -28.91490 116.23041 35214 ft 442 kts
2026-04-25 04:54 -28.85411 116.24106 35218 ft 442 kts
2026-04-25 04:55 -28.79334 116.25167 35204 ft 441 kts
2026-04-25 04:55 -28.73262 116.26225 35209 ft 441 kts
2026-04-25 04:56 -28.67195 116.27288 35204 ft 441 kts
2026-04-25 04:56 -28.61124 116.28350 35206 ft 441 kts
2026-04-25 04:57 -28.55066 116.29398 35203 ft 440 kts
2026-04-25 04:57 -28.49000 116.30449 35189 ft 440 kts
2026-04-25 04:58 -28.42939 116.31499 35192 ft 441 kts
2026-04-25 04:58 -28.36916 116.32553 35190 ft 441 kts
2026-04-25 04:59 -28.30850 116.33613 35193 ft 441 kts
2026-04-25 04:59 -28.24784 116.34650 35167 ft 441 kts 359°
2026-04-25 05:00 -28.18696 116.35693 35172 ft 442 kts 359°
2026-04-25 05:00 -28.12608 116.36750 35180 ft 442 kts 359°
2026-04-25 05:01 -28.06533 116.37793 35184 ft 442 kts 359°
2026-04-25 05:01 -28.00454 116.38845 35179 ft 442 kts 359°
2026-04-25 05:02 -27.94410 116.39887 35180 ft 442 kts 359°
2026-04-25 05:02 -27.88333 116.40930 35172 ft 442 kts 359°
2026-04-25 05:03 -27.82254 116.41971 35167 ft 442 kts 359°
2026-04-25 05:03 -27.76168 116.43012 35168 ft 442 kts 359°
2026-04-25 05:04 -27.70087 116.44468 35137 ft 448 kts
2026-04-25 05:04 -27.64078 116.46128 35156 ft 447 kts
2026-04-25 05:05 -27.58030 116.47805 35156 ft 447 kts
2026-04-25 05:05 -27.51981 116.49467 35161 ft 447 kts
2026-04-25 05:06 -27.45936 116.51123 35155 ft 447 kts
2026-04-25 05:06 -27.39889 116.52777 35142 ft 446 kts
2026-04-25 05:07 -27.34876 116.54150 35146 ft 445 kts
2026-04-25 05:07 -27.27874 116.56065 35149 ft 445 kts
2026-04-25 05:08 -27.22840 116.57441 35136 ft 444 kts
2026-04-25 05:08 -27.16872 116.59069 35136 ft 444 kts
2026-04-25 05:09 -27.10873 116.60703 35114 ft 443 kts
2026-04-25 05:09 -27.04869 116.62334 35124 ft 443 kts
2026-04-25 05:10 -26.98872 116.63961 35120 ft 443 kts
2026-04-25 05:10 -26.92869 116.65588 35127 ft 443 kts
2026-04-25 05:11 -26.86877 116.67210 35118 ft 443 kts
2026-04-25 05:11 -26.80880 116.68843 35103 ft 444 kts
2026-04-25 05:12 -26.71914 116.71276 35104 ft 444 kts
2026-04-25 05:12 -26.65903 116.72896 35105 ft 444 kts
2026-04-25 05:13 -26.59896 116.74516 35106 ft 444 kts
2026-04-25 05:13 -26.53889 116.76140 35075 ft 444 kts
2026-04-25 05:14 -26.47863 116.77759 35074 ft 446 kts
2026-04-25 05:15 -26.38843 116.80183 35072 ft 447 kts
2026-04-25 05:15 -26.32783 116.81808 35075 ft 447 kts
2026-04-25 05:16 -26.26725 116.83433 35065 ft 448 kts
2026-04-25 05:16 -26.20648 116.85063 35055 ft 450 kts
2026-04-25 05:17 -26.14546 116.86706 35058 ft 452 kts
2026-04-25 05:17 -26.08465 116.88331 35054 ft 453 kts
2026-04-25 05:18 -26.02330 116.89967 35065 ft 454 kts
2026-04-25 05:18 -25.96188 116.91605 35040 ft 454 kts
2026-04-25 05:19 -25.90049 116.93241 35050 ft 454 kts
2026-04-25 05:19 -25.83904 116.94879 35053 ft 454 kts
2026-04-25 05:20 -25.77765 116.96507 35064 ft 454 kts
2026-04-25 05:20 -25.71621 116.98145 35064 ft 454 kts
2026-04-25 05:21 -25.65485 116.99779 35054 ft 453 kts
2026-04-25 05:21 -25.59348 117.01406 35061 ft 453 kts
2026-04-25 05:22 -25.53259 117.03020 35066 ft 453 kts
2026-04-25 05:22 -25.47123 117.04642 35059 ft 453 kts
2026-04-25 05:23 -25.40996 117.06260 35058 ft 453 kts
2026-04-25 05:23 -25.34863 117.07881 35056 ft 452 kts
2026-04-25 05:24 -25.28729 117.09501 35055 ft 452 kts
2026-04-25 05:24 -25.22654 117.11097 35064 ft 451 kts
2026-04-25 05:25 -25.16540 117.12705 35063 ft 451 kts
2026-04-25 05:25 -25.10428 117.14315 35064 ft 451 kts
2026-04-25 05:26 -25.04318 117.15923 35053 ft 451 kts
2026-04-25 05:26 -24.98206 117.17525 35043 ft 451 kts
2026-04-25 05:27 -24.92100 117.19128 35046 ft 451 kts
2026-04-25 05:27 -24.85998 117.20724 35048 ft 451 kts
2026-04-25 05:28 -24.79936 117.22308 35029 ft 451 kts
2026-04-25 05:28 -24.73824 117.23912 35039 ft 450 kts
2026-04-25 05:29 -24.67718 117.25501 35042 ft 450 kts
2026-04-25 05:29 -24.61607 117.27091 35045 ft 450 kts
2026-04-25 05:30 -24.55553 117.28670 35043 ft 450 kts
2026-04-25 05:30 -24.49457 117.30261 35023 ft 450 kts
2026-04-25 05:31 -24.43366 117.31846 35031 ft 450 kts
2026-04-25 05:31 -24.37266 117.33433 35034 ft 450 kts
2026-04-25 05:32 -24.31167 117.35024 35029 ft 450 kts
2026-04-25 05:32 -24.25078 117.36608 35032 ft 450 kts
2026-04-25 05:33 -24.18978 117.38180 35023 ft 450 kts
2026-04-25 05:33 -24.12922 117.39740 35026 ft 450 kts
2026-04-25 05:34 -24.06823 117.41315 35018 ft 450 kts
2026-04-25 05:34 -24.00727 117.42891 35021 ft 450 kts
2026-04-25 05:35 -23.94618 117.44461 35026 ft 450 kts
2026-04-25 05:35 -23.88514 117.46032 35005 ft 450 kts
2026-04-25 05:36 -23.82411 117.47599 35001 ft 451 kts
2026-04-25 05:36 -23.76304 117.49173 35003 ft 451 kts
2026-04-25 05:37 -23.70179 117.50753 35005 ft 452 kts
2026-04-25 05:37 -23.64097 117.52312 35010 ft 452 kts
2026-04-25 05:38 -23.57968 117.53885 34993 ft 452 kts
2026-04-25 05:38 -23.51833 117.55464 34997 ft 453 kts
2026-04-25 05:39 -23.45703 117.57035 35003 ft 453 kts
2026-04-25 05:39 -23.39566 117.58598 35008 ft 453 kts
2026-04-25 05:40 -23.33426 117.60164 35020 ft 453 kts
2026-04-25 05:40 -23.27333 117.61719 35010 ft 452 kts
2026-04-25 05:41 -23.21201 117.63284 35022 ft 452 kts
2026-04-25 05:41 -23.15071 117.64843 35023 ft 452 kts
2026-04-25 05:42 -23.08937 117.66403 35024 ft 452 kts
2026-04-25 05:42 -23.02810 117.67963 35014 ft 452 kts
2026-04-25 05:43 -22.96681 117.69521 35017 ft 452 kts
2026-04-25 05:43 -22.90564 117.71077 35031 ft 452 kts
2026-04-25 05:44 -22.84493 117.72617 35041 ft 451 kts
2026-04-25 05:44 -22.78371 117.74160 35042 ft 451 kts
2026-04-25 05:45 -22.72262 117.75701 35018 ft 451 kts
2026-04-25 05:45 -22.66153 117.77247 35024 ft 451 kts
2026-04-25 05:46 -22.60041 117.78793 35038 ft 450 kts
2026-04-25 05:46 -22.53946 117.80331 35037 ft 450 kts
2026-04-25 05:47 -22.47843 117.81870 35033 ft 450 kts
2026-04-25 05:47 -22.41742 117.83407 35024 ft 450 kts
2026-04-25 05:48 -22.35643 117.84941 35024 ft 449 kts
2026-04-25 05:48 -22.29596 117.86456 35028 ft 449 kts
2026-04-25 05:49 -22.23509 117.87988 35029 ft 448 kts
2026-04-25 05:49 -22.17428 117.89519 35016 ft 449 kts
2026-04-25 05:50 -22.11341 117.91045 34534 ft 449 kts
2026-04-25 05:50 -22.08298 117.91808 34012 ft 448 kts
2026-04-25 05:50 -22.05267 117.92569 33449 ft 446 kts
2026-04-25 05:50 -22.02254 117.93324 32945 ft 443 kts
2026-04-25 05:51 -21.99296 117.94065 32433 ft 440 kts
2026-04-25 05:51 -21.96317 117.94810 31927 ft 438 kts
2026-04-25 05:51 -21.93356 117.95548 31410 ft 436 kts
2026-04-25 05:51 -21.90402 117.96282 30901 ft 434 kts
2026-04-25 05:52 -21.87464 117.97015 30396 ft 433 kts
2026-04-25 05:52 -21.84520 117.97750 29857 ft 432 kts
2026-04-25 05:52 -21.81597 117.98477 29318 ft 428 kts
2026-04-25 05:52 -21.78722 117.99194 28853 ft 419 kts
2026-04-25 05:53 -21.75892 117.99902 28376 ft 416 kts
2026-04-25 05:53 -21.73109 118.00595 27915 ft 415 kts
2026-04-25 05:53 -21.70302 118.01291 27461 ft 414 kts
2026-04-25 05:53 -21.67503 118.01987 27001 ft 413 kts
2026-04-25 05:54 -21.64710 118.02682 26566 ft 412 kts
2026-04-25 05:54 -21.61917 118.03378 26124 ft 411 kts
2026-04-25 05:54 -21.56345 118.04767 25240 ft 411 kts
2026-04-25 05:55 -21.53569 118.05458 24798 ft 406 kts
2026-04-25 05:55 -21.50833 118.06139 24351 ft 401 kts
2026-04-25 05:55 -21.48136 118.06811 23907 ft 397 kts
2026-04-25 05:55 -21.45439 118.07482 23421 ft 398 kts
2026-04-25 05:56 -21.42765 118.08242 22935 ft 397 kts 16°
2026-04-25 05:56 -21.40259 118.09454 22509 ft 393 kts 27°
2026-04-25 05:56 -21.38012 118.11079 22079 ft 389 kts 34°
2026-04-25 05:56 -21.35829 118.12792 21630 ft 387 kts 34°
2026-04-25 05:57 -21.33650 118.14489 21188 ft 386 kts 34°
2026-04-25 05:57 -21.31482 118.16172 20739 ft 384 kts 34°
2026-04-25 05:57 -21.29320 118.17847 20295 ft 383 kts 34°
2026-04-25 05:57 -21.27166 118.19513 19841 ft 379 kts 35°
2026-04-25 05:58 -21.25081 118.21131 19407 ft 372 kts 35°
2026-04-25 05:58 -21.23002 118.22745 18971 ft 365 kts 35°
2026-04-25 05:58 -21.20959 118.24330 18549 ft 360 kts 36°
2026-04-25 05:58 -21.19597 118.25386 18255 ft 356 kts 36°
2026-04-25 05:59 -21.16954 118.27439 17643 ft 353 kts 36°
2026-04-25 05:59 -21.15615 118.28478 17361 ft 351 kts 36°
2026-04-25 05:59 -21.13647 118.30005 16935 ft 346 kts 36°
2026-04-25 05:59 -21.11714 118.31503 16527 ft 342 kts 36°
2026-04-25 06:00 -21.09791 118.32992 16121 ft 341 kts 36°
2026-04-25 06:00 -21.07252 118.34957 15569 ft 339 kts 35°
2026-04-25 06:00 -21.05966 118.35950 15285 ft 336 kts 35°
2026-04-25 06:00 -21.04088 118.37398 14889 ft 329 kts 35°
2026-04-25 06:01 -21.02246 118.38819 14491 ft 324 kts 35°
2026-04-25 06:01 -21.00456 118.40202 14103 ft 319 kts 36°
2026-04-25 06:01 -20.98659 118.41592 13704 ft 319 kts 35°
2026-04-25 06:01 -20.96851 118.42990 13277 ft 319 kts 36°
2026-04-25 06:02 -20.95058 118.44375 12884 ft 317 kts 36°
2026-04-25 06:02 -20.93271 118.45752 12488 ft 314 kts 37°
2026-04-25 06:02 -20.91500 118.47113 12101 ft 312 kts 37°
2026-04-25 06:02 -20.89754 118.48457 11713 ft 307 kts 38°
2026-04-25 06:03 -20.88022 118.49793 11328 ft 306 kts 38°
2026-04-25 06:03 -20.86305 118.51118 10946 ft 302 kts 38°
2026-04-25 06:03 -20.84618 118.52418 10567 ft 296 kts 38°
2026-04-25 06:03 -20.82986 118.53676 10181 ft 289 kts 39°
2026-04-25 06:04 -20.81354 118.54933 10068 ft 285 kts 39°
2026-04-25 06:04 -20.79740 118.56177 9968 ft 287 kts 39°
2026-04-25 06:04 -20.78131 118.57418 9439 ft 290 kts 39°
2026-04-25 06:04 -20.76515 118.58664 8919 ft 284 kts 39°
2026-04-25 06:05 -20.74925 118.59889 8409 ft 280 kts 39°
2026-04-25 06:05 -20.73341 118.61109 7925 ft 281 kts 38°
2026-04-25 06:05 -20.71758 118.62326 7427 ft 280 kts 38°
2026-04-25 06:05 -20.70184 118.63535 6962 ft 278 kts 37°
2026-04-25 06:06 -20.68611 118.64742 6441 ft 278 kts 37°
2026-04-25 06:06 -20.67056 118.65937 5973 ft 273 kts 37°
2026-04-25 06:06 -20.65521 118.67119 5507 ft 270 kts 37°
2026-04-25 06:06 -20.64030 118.68264 5329 ft 255 kts 37°
2026-04-25 06:07 -20.62649 118.69323 5267 ft 233 kts 38°
2026-04-25 06:07 -20.61364 118.70306 5176 ft 221 kts 38°
2026-04-25 06:07 -20.60135 118.71250 5096 ft 219 kts 38°
2026-04-25 06:07 -20.58860 118.72176 4992 ft 220 kts 30°
2026-04-25 06:08 -20.57518 118.72923 4665 ft 217 kts 30°
2026-04-25 06:08 -20.56184 118.73658 4357 ft 209 kts 30°
2026-04-25 06:08 -20.54927 118.74348 4072 ft 202 kts 29°
2026-04-25 06:08 -20.53682 118.75035 3801 ft 201 kts 30°
2026-04-25 06:09 -20.52371 118.75595 3523 ft 202 kts
2026-04-25 06:09 -20.51014 118.75335 3287 ft 205 kts 334°
2026-04-25 06:09 -20.49912 118.74389 2978 ft 202 kts 320°
2026-04-25 06:09 -20.48895 118.73393 2693 ft 196 kts 321°
2026-04-25 06:10 -20.47916 118.72431 2412 ft 187 kts 321°
2026-04-25 06:10 -20.46969 118.71501 2175 ft 185 kts 323°
2026-04-25 06:10 -20.46026 118.70581 1921 ft 182 kts 321°
2026-04-25 06:10 -20.45107 118.69679 1663 ft 174 kts 320°
2026-04-25 06:11 -20.44258 118.68842 1442 ft 159 kts 321°
2026-04-25 06:11 -20.43476 118.68069 1224 ft 146 kts 320°
2026-04-25 06:11 -20.42741 118.67351 1013 ft 142 kts 321°
2026-04-25 06:11 -20.41993 118.66660 778 ft 142 kts 320°
2026-04-25 06:12 -20.41288 118.65940 607 ft 139 kts 323°
2026-04-25 06:12 -20.40571 118.65242 416 ft 140 kts 323°
2026-04-25 06:12 -20.39854 118.64548 250 ft 137 kts 319°
2026-04-25 06:12 -20.39164 118.63873 86 ft 134 kts 320°
2026-04-25 06:13 -20.38525 118.63248 37 ft 105 kts 316°
2026-04-25 06:13 -20.38114 118.62846 33 ft 55 kts 318°
2026-04-25 06:13 -20.37917 118.62654 34 ft 33 kts 317°
2026-04-25 06:14 -20.37603 118.62347 36 ft 29 kts 318°
2026-04-25 06:14 -20.37477 118.62224 34 ft 18 kts 316°
2026-04-25 06:14 -20.37432 118.62169 34 ft 3 kts 40°
2026-04-25 06:14 -20.37440 118.62189 32 ft 4 kts 130°
2026-04-25 06:15 -20.37469 118.62218 34 ft 7 kts 136°
2026-04-25 06:15 -20.37509 118.62257 35 ft 9 kts 137°
2026-04-25 06:15 -20.37556 118.62303 36 ft 10 kts 137°
2026-04-25 06:15 -20.37613 118.62359 36 ft 13 kts 137°
2026-04-25 06:16 -20.37687 118.62431 35 ft 16 kts 137°
2026-04-25 06:16 -20.37773 118.62515 35 ft 18 kts 139°
2026-04-25 06:16 -20.37870 118.62610 34 ft 20 kts 137°
2026-04-25 06:16 -20.37983 118.62720 33 ft 23 kts 137°
2026-04-25 06:17 -20.38107 118.62844 33 ft 26 kts 137°
2026-04-25 06:17 -20.38216 118.62961 31 ft 15 kts 102°
2026-04-25 06:17 -20.38150 118.63054 33 ft 17 kts 47°
2026-04-25 06:17 -20.38061 118.63155 32 ft 20 kts 46°
2026-04-25 06:18 -20.37968 118.63215 33 ft 13 kts
2026-04-25 06:18 -20.37920 118.63180 32 ft 10 kts 281°
2026-04-25 06:18 -20.37915 118.63103 33 ft 8 kts 276°
2026-04-25 06:18 -20.37891 118.63116 33 ft 5 kts 64°
2026-04-25 06:19 -20.37868 118.63144 33 ft 2 kts 47°
2026-04-25 06:19 -20.37863 118.63149 31 ft 1 kts 47°
2026-04-25 06:19 -20.37862 118.63150 32 ft 0 kts 47°